Flag for Canada Weather past 2 weeks in Grande Prairie, Alberta, Canada

Now
39 °F

Passing clouds.


Feels Like: 29 °F
Forecast: 33 / 45 °F
Wind: 21 mph from Southwest

Location: Grande Prairie

Current Time: Mar 30, 2015 at 3:21:29 AM

Latest Report: Mar 30, 2015 at 3:00 AM


Visibility: 25 mi

Pressure: 29.93 "Hg

Humidity: 61%

Dew point: 27 °F

Location of Grande PrairieLocation

Historic Weather in Grande Prairie — Graph

°F

Grande Prairie temperature yesterday

Maximum temperature yesterday: 55 °F (at 3:00 PM)
Minimum temperature yesterday: 32 °F (at 7:00 AM)
Average temperature yesterday: 42 °F

Past Weeks' High & Low Weather Summary

 TemperatureHumidityPressure
High55 °F (Mar 26, 5:00 PM)100% (Mar 15, 9:00 AM)30.45 "Hg (Mar 15, 9:00 AM)
Low12 °F (Mar 23, 4:00 AM)38% (Mar 18, 3:00 PM)29.69 "Hg (Mar 28, 4:00 AM)
Average34 °F78%30.04 "Hg
* Reported Mar 15 2:00 AM — Mar 30 2:00 AM, Grande Prairie, Weather by CustomWeather, © 2015

Note: Actual official high and low records may vary slightly from our data, if they occured in-between our weather recording intervals... More about our weather records

Advertising

Grande Prairie weather history for previous 24 hours

 ConditionsComfort  
Time TempWeatherWind HumidityBarometerVisibility
2:00 AM
Mon, Mar 30
37 °FPassing clouds.15 mph70%29.94 "Hg25 mi
1:00 AM37 °FPassing clouds.12 mph70%29.94 "Hg25 mi
12:00 AM39 °FPassing clouds.12 mph70%29.94 "Hg25 mi
11:00 PM
Sun, Mar 29
39 °FPassing clouds.14 mph70%29.93 "Hg25 mi
10:00 PM41 °FPassing clouds.15 mph66%29.93 "Hg25 mi
9:00 PM45 °FScattered clouds.18 mph57%29.90 "Hg25 mi
8:00 PM46 °FScattered clouds.15 mph53%29.88 "Hg25 mi
7:00 PM50 °FPassing clouds.25 mph47%29.86 "Hg25 mi
6:00 PM52 °FScattered clouds.24 mph44%29.83 "Hg25 mi
5:00 PM54 °FScattered clouds.28 mph44%29.82 "Hg25 mi
4:00 PM54 °FPartly sunny.30 mph47%29.81 "Hg25 mi
3:00 PM55 °FScattered showers. Partly sunny.23 mph47%29.80 "Hg25 mi
2:00 PM50 °FPartly sunny.7 mph62%29.82 "Hg25 mi
1:00 PM48 °FPartly sunny.8 mph66%29.82 "Hg25 mi
12:00 PM46 °FBroken clouds.12 mph66%29.83 "Hg25 mi
11:00 AM46 °FBroken clouds.9 mph62%29.83 "Hg25 mi
10:00 AM37 °FPartly sunny.5 mph81%29.85 "Hg25 mi
9:00 AM34 °FPartly sunny.No wind87%29.85 "Hg25 mi
8:00 AM32 °FPartly cloudy.No wind80%29.86 "Hg25 mi
7:00 AM32 °FPassing clouds.2 mph80%29.85 "Hg25 mi
6:00 AM34 °FPassing clouds.2 mph75%29.86 "Hg25 mi
5:00 AM34 °FPassing clouds.No wind75%29.88 "Hg25 mi
4:00 AM34 °FPassing clouds.2 mph75%29.89 "Hg25 mi
3:00 AM36 °FPassing clouds.3 mph75%29.90 "Hg25 mi
Weather by CustomWeather, © 2015

See weather overviewHow to use our weather pages